Tracking 29591 objects as of 19-Sep-2024
HD Live streaming from Space Station
objects crossing your sky now

FORMOSAT7-3/COSMIC2-3

Track FORMOSAT7-3/COSMIC2-3 now!
10-day predictions


NORAD ID: 44343
Int'l Code: 2019-036E
Perigee: 545.1 km
Apogee: 547.0 km
Inclination: 24.0 °
Period: 95.4 minutes
Semi major axis: 6917 km
RCS: Unknown
Launch date: June 25, 2019
Source: Taiwan (Republic of China) (ROC)
Launch site: AIR FORCE EASTERN TEST RANGE (AFETR)
Your satellite tracking list
Your tracking list is empty




NASA's NSSDC Master Catalog

Two Line Element Set (TLE):
1 44343U 19036E   24262.21799727  .00015278  00000-0  91536-3 0  9997
2 44343  23.9991 231.8869 0001364 218.8073 141.2333 15.09124173286964
Source of the keplerian elements: AFSPC